AirNav   Pilot Hours Calculator
 
 1652 users online  

6F1 Talihina Municipal Airport
Talihina, Oklahoma, USA

GOING TO TALIHINA?


FAA INFORMATION EFFECTIVE 25 MARCH 2021

Location

FAA Identifier: 6F1
Lat/Long: 34-42-27.9770N 095-04-25.6290W
34-42.466283N 095-04.427150W
34.7077714,-95.0737858
(estimated)
Elevation: 687 ft. / 209.4 m (surveyed)
Variation: 05E (1985)
From city: 3 miles SW of TALIHINA, OK
Time zone: UTC -5 (UTC -6 during Standard Time)
Zip code: 74571

Airport Operations

Airport use: Open to the public
Activation date: 10/1979
Control tower: no
ARTCC: FORT WORTH CENTER
FSS: MC ALESTER FLIGHT SERVICE STATION
NOTAMs facility: MLC (NOTAM-D service available)
Attendance: UNATNDD
Wind indicator: yes
Segmented circle: yes
Lights: ACTVT MIRL RY 01/19 - CTAF.

Airport Communications

CTAF: 122.9

Nearby radio navigation aids

VOR radial/distance  VOR name  Freq  Var
PGOr270/23.0RICH MOUNTAIN VORTAC113.5004E

Airport Services

Parking: tiedowns
Airframe service: NONE
Powerplant service: NONE
Bottled oxygen: NONE
Bulk oxygen: NONE

Runway Information

Runway 1/19

Dimensions: 3300 x 60 ft. / 1006 x 18 m
Surface: asphalt, in good condition
Weight bearing capacity: 
Single wheel: 12.0
Runway edge lights: medium intensity
RUNWAY 1  RUNWAY 19
Latitude: 34-42.208333N34-42.724217N
Longitude: 095-04.531667W095-04.322617W
Elevation: 683.4 ft.684.3 ft.
Traffic pattern: leftleft
Runway heading: 014 magnetic, 019 true194 magnetic, 199 true
Markings: basic, in good conditionbasic, in good condition
Touchdown point: yes, no lightsyes, no lights
Obstructions: 28 ft. trees, 250 ft. from runway, 1:1 slope to clear
+27 FT TREES 90 FT FM THLD 90 FT L.
45 ft. trees, 408 ft. from runway, 100 ft. right of centerline, 4:1 slope to clear

Airport Ownership and Management from official FAA records

Ownership: Publicly-owned
Owner: CITY OF TALIHINA
CITY HALL PO BOX 457
TALIHINA, OK 74571
Phone 918-567-2194
Manager: BRANN LINGENFELTER
CITY HALL PO BOX 457
TALIHINA, OK 74571
Phone (918) 413-2088
AIRPORT BOARD MEMBER.

Airport Operational Statistics

Aircraft based on the field: 2
Single engine airplanes: 1
Gliders airplanes: 1
    
Aircraft operations: avg 38/month *
100% transient general aviation
* for 12-month period ending 07 June 2019

Additional Remarks

FOR CD CTC FORT WORTH ARTCC AT 817-858-7584.

Instrument Procedures

There are no published instrument procedures at 6F1.

Some nearby airports with instrument procedures:

KRKR - Robert S Kerr Airport (29 nm NE)
KGZL - Stigler Regional Airport (35 nm N)
KMLC - Mc Alester Regional Airport (37 nm W)
80F - Antlers Municipal Airport (42 nm SW)
KMEZ - Mena Intermountain Municipal Airport (44 nm E)
 
Loc | Ops | Rwys | IFR | FBO | Links
Com | Nav | Svcs | Stats | Notes
Area around 6F1 (Talihina Municipal Airport)
 
Road maps at: MapQuest Bing Google
 
Aerial photo
WARNING: Photo may not be current or correct
Aerial photo of 6F1 (Talihina Municipal Airport)
Photo by Matthew Nichols
Photo taken 05-May-2008

Do you have a better or more recent aerial photo of Talihina Municipal Airport that you would like to share? If so, please send us your photo.

 
Sectional chart

 
Airport distance calculator
Flying to Talihina Municipal Airport? Find the distance to fly.

From to 6F1

Sunrise and sunset
Times for 19-Apr-2021
 Local
(UTC-5)
 Zulu
(UTC)
Morning civil twilight06:1811:18
Sunrise06:4511:45
Sunset19:5400:54
Evening civil twilight20:2101:21

Current date and time
Zulu (UTC)  19-Apr-2021 16:10:27
Local (UTC-5)  19-Apr-2021 11:10:27
 
METAR
KRKR 
29nm NE 
191555Z AUTO 21003KT 10SM CLR 16/06 A3008 RMK AO2
KGZL 
35nm N 
191555Z AUTO 24011G16KT 10SM 18/M03 A3007 RMK AO2
KMLC 
37nm W 
191553Z AUTO 21009KT 10SM FEW110 19/03 A3007 RMK AO2 SLP180 T01890028
KMEZ 
44nm E 
191555Z AUTO 25008KT 10SM CLR 18/03 A3009 RMK AO2
KJSV 
46nm N 
191555Z AUTO 24003KT 10SM CLR 15/05 A3007 RMK AO2
KHHW 
47nm SW 
191555Z AUTO 21008KT 10SM CLR 17/00 A3009 RMK AO2
K4O4 
49nm S 
191555Z AUTO 19005KT 10SM CLR 17/07 A3010 RMK AO2
TAF
KMLC 
37nm W 
191120Z 1912/2012 00000KT P6SM SKC FM191500 22010KT P6SM SKC FM200100 17004KT P6SM FEW250 FM200700 19006KT P6SM SCT250 WS020/21040KT
NOTAMs
Click for the latest NOTAMs
NOTAMs are issued by the DoD/FAA and will open in a separate window not controlled by AirNav.

 

 
 

Would you like to see your business listed on this page?

 If your business provides an interesting product or service to pilots, flight crews, aircraft, or users of the Talihina Municipal Airport, you should consider listing it here.  To start the listing process, click on the button below
 
Add a business
 

Other Pages about Talihina Municipal Airport

Update a link
 
Copyright © AirNav, LLC. All rights reserved. Privacy Policy  Contact